Weather in Nes'

Russia / Nenets Autonomous Okrug     66°36′03″N   44°40′44″E
temp.,
°C
wind,
m/s
gust,
m/s
humid.,
%
clouds,
%
prec.,
mm/h
press.,
hPa
HPBL,
m
27 february, sat
sat2700:00−14ssw6109389 0.1 1005344
03:00−14ssw699594 0.7 1006321
06:00−14ssw61093100 0.4 1005267
09:00−14ssw7109399 0.6 1006294
12:00−12ssw8109498 0.6 1006280
15:00−12ssw8109497 1.2 1006258
18:00−10ssw569599 0.8 1006168
21:00−13wnw129893 1.1 100721
28 february, sun
sun2800:00−14nw239621 0.0 100720
03:00−11wsw339744 0.1 100823
06:00−7wsw569697 0.1 1007125
09:00−7wsw569698 0.3 1008134
12:00−7wsw579582 0.1 1009231
15:00−8wsw589579 0.1 1009153
18:00−10wsw569875 0.0 100983
21:00−6wsw699488 0.1 1009396
1 march, mon
mon100:00−7sw81294100 0.1 1007272
03:00−6sw9149396 0.3 1005369
06:00−4sw91495100 0.2 1001374
09:00−1sw111697100 1.6 996646
12:000wsw111599100 3.4 993495
15:000wnw81299100 4.8 993434
18:00−1wnw71194100 0.3 991406
21:00−6wsw459589 0.3 99242
2 march, tue
tue200:00−4wsw6109694 0.3 991204
03:00−7wsw7109285 0.4 991135
06:00−7wsw7119571 0.1 989184
09:00−2w9139586 1.4 989550
12:00−3wnw10159695 0.3 990754
15:00−3nw11178397 1.1 992943
18:00−6wnw101786100 0.0 994541
21:00−8wnw8138899 0.0 997229
3 march, wed
wed300:00−9nw6109518 0.0 998141
03:00−9wnw699646 0.0 999141
06:00−7wnw7119682 0.1 1000260
09:00−7wnw7129490 0.3 1000346
12:00−7w7109597 0.4 999470
15:00−6wnw7119482 0.6 999293
18:00−9w6109490 0.0 998189
21:00−10w579582 0.1 99893